Laconia, New Hampshire, United States (03246)
Lat: 43.53N, Lon: 71.47W
Wx Zone: NHZ009
Local Info
Past Weather Observations for Wednesday, September 17, 2014

NOTE: This archive is for the closest National Weather Service station to Laconia. Information may differ from the station used for current weather conditions.

Click here for Long-term Archive

Time Weather Temperature Dewpoint Humidity Pressure Winds Precip Visibility
23:55
Clear
48°F / 9°C 45°F / 7°C 87% 29.95 in
(1014 mb)
Calm - 10SM
23:35
Clear
48°F / 9°C 45°F / 7°C 87% 29.95 in
(1014 mb)
Calm - 10SM
23:15
Clear
48°F / 9°C 45°F / 7°C 87% 29.95 in
(1014 mb)
Calm - 10SM
22:55
Clear
48°F / 9°C 45°F / 7°C 87% 29.95 in
(1014 mb)
SSW 3.5 mph
(SSW 6 kph)
- 10SM
22:35
Clear
48°F / 9°C 45°F / 7°C 87% 29.95 in
(1014 mb)
Calm - 10SM
22:15
Clear
50°F / 10°C 46°F / 8°C 88% 29.95 in
(1014 mb)
Calm - 10SM
21:55
Clear
50°F / 10°C 46°F / 8°C 88% 29.95 in
(1014 mb)
SSW 4.6 mph
(SSW 7 kph)
- 10SM
21:35
Clear
50°F / 10°C 46°F / 8°C 88% 29.95 in
(1014 mb)
Calm - 10SM
21:15
Clear
52°F / 11°C 46°F / 8°C 82% 29.95 in
(1014 mb)
Calm - 10SM
20:55
Clear
52°F / 11°C 46°F / 8°C 82% 29.95 in
(1014 mb)
Calm - 10SM
20:35
Clear
54°F / 12°C 48°F / 9°C 82% 29.95 in
(1014 mb)
Calm - 10SM
20:15
Partly Cloudy
54°F / 12°C 48°F / 9°C 82% 29.95 in
(1014 mb)
Calm - 10SM
19:55
Mostly Cloudy
55°F / 13°C 48°F / 9°C 77% 29.95 in
(1014 mb)
Calm - 10SM
19:35
Mostly Cloudy
55°F / 13°C 48°F / 9°C 77% 29.95 in
(1014 mb)
Calm - 10SM
19:15
Mostly Cloudy
55°F / 13°C 48°F / 9°C 77% 29.95 in
(1014 mb)
Calm - 10SM
18:55
Overcast
57°F / 14°C 48°F / 9°C 72% 29.95 in
(1014 mb)
Calm - 7SM
18:35
Overcast
55°F / 13°C 48°F / 9°C 77% 29.95 in
(1014 mb)
Calm - 10SM
18:15
Overcast
57°F / 14°C 50°F / 10°C 77% 29.95 in
(1014 mb)
Calm - 10SM
17:55
Partly Cloudy
57°F / 14°C 48°F / 9°C 72% 29.95 in
(1014 mb)
Calm - 10SM
17:35
Partly Cloudy
61°F / 16°C 48°F / 9°C 63% 29.95 in
(1014 mb)
Calm - 10SM
17:15
Clear
63°F / 17°C 48°F / 9°C 59% 29.95 in
(1014 mb)
Calm - 10SM
16:55
Clear
63°F / 17°C 45°F / 7°C 52% 29.95 in
(1014 mb)
Calm - 10SM
16:35
Clear
64°F / 18°C 43°F / 6°C 46% 29.95 in
(1014 mb)
SSW 5.8 mph
(SSW 9 kph)
- 10SM
16:15
Clear
64°F / 18°C 43°F / 6°C 46% 29.92 in
(1013 mb)
SW 6.9 mph
(SW 11 kph)
- 10SM
15:55
Clear
66°F / 19°C 43°F / 6°C 43% 29.95 in
(1014 mb)
SW 8.1 mph
(SW 13 kph)
- 10SM
15:35
Clear
66°F / 19°C 43°F / 6°C 43% 29.92 in
(1013 mb)
Calm - 10SM
15:15
Clear
66°F / 19°C 45°F / 7°C 46% 29.95 in
(1014 mb)
W 3.5 mph
(W 6 kph)
- 10SM
14:55
Clear
66°F / 19°C 43°F / 6°C 43% 29.95 in
(1014 mb)
SW 3.5 mph
(SW 6 kph)
- 10SM
14:35
Clear
64°F / 18°C 43°F / 6°C 46% 29.95 in
(1014 mb)
SSW 4.6 mph
(SSW 7 kph)
- 10SM
14:15
Clear
66°F / 19°C 43°F / 6°C 43% 29.95 in
(1014 mb)
SW 8.1 mph
(SW 13 kph)
- 10SM
13:55
Partly Cloudy
64°F / 18°C 43°F / 6°C 46% 29.95 in
(1014 mb)
SW 6.9 mph
(SW 11 kph)
- 10SM
13:35
Partly Cloudy
64°F / 18°C 43°F / 6°C 46% 29.95 in
(1014 mb)
SW 6.9 mph
(SW 11 kph)
- 10SM
13:15
Clear
64°F / 18°C 43°F / 6°C 46% 29.95 in
(1014 mb)
SSW 8.1 mph
(SSW 13 kph)
- 10SM
12:55
Clear
64°F / 18°C 43°F / 6°C 46% 29.98 in
(1015 mb)
SSW 8.1 mph
(SSW 13 kph)
- 10SM
12:35
Clear
64°F / 18°C 43°F / 6°C 46% 29.98 in
(1015 mb)
SW 5.8 mph
(SW 9 kph)
- 10SM
12:15
Clear
64°F / 18°C 43°F / 6°C 46% 29.98 in
(1015 mb)
SW 9.2 mph
(SW 15 kph)
- 10SM
11:55
Clear
64°F / 18°C 43°F / 6°C 46% 29.98 in
(1015 mb)
SSW 9.2 mph
(SSW 15 kph)
- 10SM
11:35
Clear
63°F / 17°C 43°F / 6°C 49% 29.98 in
(1015 mb)
SSW 6.9 mph
(SSW 11 kph)
- 10SM
11:15
Clear
63°F / 17°C 43°F / 6°C 49% 29.98 in
(1015 mb)
SW 3.5 mph
(SW 6 kph)
- 10SM
10:55
Clear
61°F / 16°C 43°F / 6°C 52% 30.01 in
(1016 mb)
SW 4.6 mph
(SW 7 kph)
- 10SM
10:35
Clear
61°F / 16°C 45°F / 7°C 55% 30.01 in
(1016 mb)
SSW 6.9 mph
(SSW 11 kph)
- 10SM
10:15
Clear
61°F / 16°C 45°F / 7°C 55% 30.01 in
(1016 mb)
SSW 4.6 mph
(SSW 7 kph)
- 10SM
09:55
Clear
61°F / 16°C 46°F / 8°C 59% 30.01 in
(1016 mb)
SSW 8.1 mph
(SSW 13 kph)
- 10SM
09:35
Clear
57°F / 14°C 46°F / 8°C 67% 30.01 in
(1016 mb)
SSW 5.8 mph
(SSW 9 kph)
- 10SM
09:15
Clear
57°F / 14°C 48°F / 9°C 72% 30.01 in
(1016 mb)
SSW 4.6 mph
(SSW 7 kph)
- 10SM
08:55
Clear
55°F / 13°C 48°F / 9°C 77% 30.01 in
(1016 mb)
SW 5.8 mph
(SW 9 kph)
- 10SM
08:35
Clear
54°F / 12°C 48°F / 9°C 82% 30.01 in
(1016 mb)
SSW 6.9 mph
(SSW 11 kph)
- 10SM
08:15
Clear
54°F / 12°C 48°F / 9°C 82% 30.01 in
(1016 mb)
SSW 5.8 mph
(SSW 9 kph)
- 10SM
07:55
Partly Cloudy
52°F / 11°C 48°F / 9°C 88% 30.01 in
(1016 mb)
SSW 4.6 mph
(SSW 7 kph)
- 10SM
07:35
Partly Cloudy
50°F / 10°C 48°F / 9°C 94% 30.01 in
(1016 mb)
SSW 6.9 mph
(SSW 11 kph)
- 10SM
07:15
Mostly Cloudy
48°F / 9°C 48°F / 9°C 100% 30.01 in
(1016 mb)
SSW 6.9 mph
(SSW 11 kph)
- 10SM
06:55
Overcast
48°F / 9°C 46°F / 8°C 94% 30.01 in
(1016 mb)
SSW 9.2 mph
(SSW 15 kph)
- M1/4SM
06:35
Overcast
48°F / 9°C 46°F / 8°C 94% 30.01 in
(1016 mb)
SW 6.9 mph
(SW 11 kph)
- M1/4SM
06:15
Overcast
48°F / 9°C 46°F / 8°C 94% 30.01 in
(1016 mb)
SSW 4.6 mph
(SSW 7 kph)
- M1/4SM
05:55
Overcast
46°F / 8°C 45°F / 7°C 93% 30.01 in
(1016 mb)
SW 4.6 mph
(SW 7 kph)
- 1/2SM
05:35
Overcast
46°F / 8°C 45°F / 7°C 93% 30.01 in
(1016 mb)
SW 4.6 mph
(SW 7 kph)
- 1/2SM
05:15
Mostly Cloudy
48°F / 9°C 46°F / 8°C 94% 29.98 in
(1015 mb)
SSW 3.5 mph
(SSW 6 kph)
- 10SM
04:55
Overcast
48°F / 9°C 46°F / 8°C 94% 30.01 in
(1016 mb)
SSE 6.9 mph
(SSE 11 kph)
- 9SM
04:35
Mostly Cloudy
46°F / 8°C 45°F / 7°C 93% 29.98 in
(1015 mb)
SW 3.5 mph
(SW 6 kph)
- 10SM
04:15
Mostly Cloudy
46°F / 8°C 45°F / 7°C 93% 29.98 in
(1015 mb)
Calm - 10SM
03:55
Mostly Cloudy
48°F / 9°C 45°F / 7°C 87% 29.98 in
(1015 mb)
SSE 4.6 mph
(SSE 7 kph)
- 10SM
03:35
Overcast
48°F / 9°C 46°F / 8°C 94% 29.98 in
(1015 mb)
SW 4.6 mph
(SW 7 kph)
- 10SM
03:15
Overcast
50°F / 10°C 48°F / 9°C 94% 29.98 in
(1015 mb)
SW 5.8 mph
(SW 9 kph)
- 9SM
02:55
Overcast
50°F / 10°C 48°F / 9°C 94% 29.98 in
(1015 mb)
SSE 4.6 mph
(SSE 7 kph)
- 10SM
02:35
Overcast
52°F / 11°C 48°F / 9°C 88% 29.98 in
(1015 mb)
S 4.6 mph
(S 7 kph)
- 4SM
02:15
Overcast
52°F / 11°C 48°F / 9°C 88% 29.98 in
(1015 mb)
S 4.6 mph
(S 7 kph)
- 9SM
01:55
Overcast
52°F / 11°C 48°F / 9°C 88% 29.98 in
(1015 mb)
SW 4.6 mph
(SW 7 kph)
- 10SM
01:35
Overcast
52°F / 11°C 48°F / 9°C 88% 29.98 in
(1015 mb)
SSE 6.9 mph
(SSE 11 kph)
- 2 1/2SM
01:15
Overcast
52°F / 11°C 50°F / 10°C 94% 29.98 in
(1015 mb)
SW 6.9 mph
(SW 11 kph)
- 2SM
00:55
Overcast
52°F / 11°C 50°F / 10°C 94% 29.98 in
(1015 mb)
SW 5.8 mph
(SW 9 kph)
- 2SM
00:35
Overcast
52°F / 11°C 50°F / 10°C 94% 29.98 in
(1015 mb)
SSE 4.6 mph
(SSE 7 kph)
- 3SM
00:15
Overcast
52°F / 11°C 50°F / 10°C 94% 29.98 in
(1015 mb)
Calm - 2 1/2SM
Time Weather Temperature Dewpoint Humidity Pressure Winds Precip Visibility


Weather for websites

WeatherForYou.com, LLC is not responsible for any damages or problems caused by this service. Current weather conditions are obtained from the closest station including government and personal stations which may have varying degrees of accuracy. Weather forecasts are derived from the NOAA NDFD. Like all things, this site belongs to Jesus Christ... He just trusts me to maintain it. If you have any questions or comments email webmaster@weatherforyou.com

Copyright © 2014, WeatherForYou.com LLC. All rights reserved.